Wind_Speed
21 19 18 17 15 14 13 12 12 10 8 8 7 7 7 8 9 9 10 11 12 14 15 16 17 17 17 17 18 19 21 23 24 24 24 26 28 30 32 34 36 39
23 21 20 19 18 17 16 16 14 12 11 10 10 10 10 11 11 12 13 14 15 16 17 18 18 18 18 18 18 19 21 23 24 25 25 26 28 30 32 33 35 37
24 23 21 20 20 20 19 18 17 15 13 13 13 13 13 13 14 15 15 16 17 17 18 19 19 20 19 19 19 20 21 23 24 25 26 27 29 30 32 33 34 36
26 24 23 23 22 22 22 21 19 18 16 16 16 16 16 16 17 18 18 18 19 19 20 20 21 22 22 22 21 21 22 23 24 25 26 28 30 31 33 33 34 36
27 27 26 25 24 24 24 23 22 21 20 19 19 19 19 20 20 21 21 21 21 21 21 22 23 23 24 24 24 23 23 24 24 26 27 28 30 32 33 34 34 36
29 29 28 27 27 26 26 25 24 23 22 22 22 22 22 22 23 23 24 24 23 23 23 23 24 25 26 26 26 25 25 25 25 26 28 29 31 32 34 35 35 37
29 29 29 29 28 28 27 26 25 24 24 24 24 25 25 25 25 26 26 26 25 24 25 25 26 26 27 28 27 27 27 27 27 28 29 30 32 33 35 35 36 37
30 30 30 29 29 29 28 27 27 26 26 27 27 27 27 28 28 28 28 28 27 26 27 27 27 28 29 30 29 29 29 29 28 29 30 31 33 35 36 36 37 38
30 31 30 30 30 30 29 29 29 29 29 30 30 29 30 30 29 29 29 29 28 27 28 29 30 30 31 31 31 32 31 31 30 30 31 33 35 37 37 37 38 39
31 31 31 31 31 31 31 32 32 32 32 32 32 31 31 31 31 30 30 29 29 29 29 31 32 32 32 33 33 34 34 33 33 33 33 34 36 39 39 39 40 40
32 32 32 32 32 32 33 33 34 34 33 33 33 33 33 32 32 31 31 31 31 31 31 32 33 34 34 35 35 36 36 36 36 36 36 36 38 40 41 41 41 42
34 34 34 33 33 34 34 35 35 35 35 35 35 35 34 34 33 32 32 32 32 33 33 34 35 36 37 37 37 38 38 38 39 39 39 39 39 41 43 43 43 44
37 36 35 35 35 36 36 36 36 36 36 36 35 35 35 35 35 34 34 34 34 35 36 37 38 39 39 39 39 40 41 41 41 42 42 42 42 43 44 44 45 45
39 38 37 37 37 37 38 37 37 37 37 36 36 37 37 37 36 36 36 36 36 37 38 39 40 41 41 41 41 41 43 44 44 44 44 44 44 45 46 46 46 47
41 40 40 39 39 40 39 39 39 39 38 38 38 38 38 38 38 38 38 38 39 40 40 41 42 43 43 43 43 43 45 46 47 47 46 46 46 47 48 48 48 49
41 41 41 41 41 41 41 41 41 40 40 39 39 39 40 40 40 40 40 41 41 42 43 43 44 44 45 45 45 46 47 48 49 49 48 48 48 49 50 50 50 51
43 43 43 43 43 43 42 42 42 42 42 42 42 42 42 42 43 43 43 43 44 44 44 45 45 46 46 47 48 49 49 50 51 52 51 50 51 51 52 52 53 54
46 46 46 46 46 45 45 44 44 44 45 46 46 46 45 45 46 46 45 45 46 46 47 47 47 48 49 49 50 51 51 52 53 54 54 54 54 54 55 55 55 56
48 48 49 49 48 48 47 47 46 47 48 48 49 48 48 48 48 48 47 47 48 49 49 49 50 51 51 52 53 53 54 55 55 57 57 57 57 57 58 58 58 58
51 51 51 51 51 50 49 49 49 50 50 51 51 51 50 50 51 50 50 50 51 51 51 51 52 54 54 55 55 56 57 57 58 59 60 61 61 60 60 60 61 61
53 53 53 53 53 53 52 53 53 53 53 53 53 53 53 53 53 53 53 54 54 54 53 54 56 57 58 58 59 59 60 60 60 62 63 64 64 64 63 63 63 64
57 56 56 55 55 56 57 57 57 56 56 56 56 56 56 56 56 57 57 57 57 57 57 58 59 60 61 62 62 63 63 63 63 65 65 66 66 66 66 65 65 67
58 58 57 57 58 59 60 61 61 60 60 59 59 60 60 59 60 60 61 61 61 61 61 62 63 63 65 66 66 66 66 66 66 67 67 67 68 69 68 68 67 68
55 56 56 57 58 59 60 61 62 62 62 62 62 62 62 62 63 63 63 64 64 65 65 65 65 66 67 68 69 69 69 68 68 68 68 68 69 69 69 69 68 68
50 51 53 54 54 55 56 57 57 57 58 59 59 59 59 60 61 62 62 62 62 63 63 63 63 64 65 67 68 69 69 68 67 66 66 67 67 68 68 68 67 66
45 46 47 48 49 49 50 51 52 52 52 52 53 53 53 54 55 55 56 57 57 57 56 56 57 58 59 61 63 63 64 64 62 61 62 63 63 63 65 66 65 63
Wind_Direction
238 240 242 243 244 244 245 247 248 249 250 255 261 266 272 280 289 297 304 308 313 315 316 318 321 325 331 335 337 339 342 343 343 343 343 345 348 352 355 357 0 3
238 240 243 247 250 251 249 249 251 252 254 257 262 269 275 283 291 295 300 304 307 309 310 312 314 318 323 328 331 334 337 339 341 342 341 341 343 345 349 351 354 359
240 242 244 246 250 253 255 255 256 257 259 262 266 272 279 286 292 295 297 300 303 304 306 308 310 314 317 321 325 329 332 335 337 340 340 340 340 341 343 345 348 352
245 247 247 248 250 254 257 259 261 262 262 263 266 271 277 283 288 293 296 297 298 300 303 306 308 311 313 317 320 324 328 330 332 335 337 337 337 338 339 342 344 346
248 249 250 251 253 255 257 259 262 264 265 265 267 271 274 278 284 289 293 294 295 298 301 304 307 309 311 314 317 321 324 326 327 330 332 333 334 334 336 339 341 343
247 249 251 253 254 255 258 260 262 264 266 269 270 271 274 277 282 286 289 291 293 296 299 302 304 306 309 310 313 317 320 322 324 326 328 329 329 329 331 335 338 340
246 248 250 252 254 257 259 261 262 263 266 269 270 272 275 277 280 284 287 290 291 293 296 299 302 304 305 307 310 313 316 318 319 321 324 325 325 325 326 330 334 337
244 246 247 249 253 256 258 260 262 263 265 267 269 271 274 276 280 283 286 288 289 291 293 296 299 301 302 305 308 310 312 314 315 318 320 322 322 321 322 326 330 333
244 246 248 249 252 254 257 259 260 262 264 265 268 270 273 277 280 283 284 285 287 289 291 294 297 300 301 302 305 307 308 310 312 315 317 319 319 319 320 322 326 329
246 248 250 251 253 256 257 259 260 262 264 266 269 271 273 277 280 281 282 283 285 288 290 292 295 298 299 301 303 304 305 307 310 312 314 316 317 317 318 320 323 326
247 249 250 253 255 257 258 260 261 263 265 268 270 273 275 277 279 281 281 282 284 286 288 290 293 296 297 299 301 302 304 306 308 310 311 313 314 315 316 318 321 324
246 248 250 253 256 258 260 262 264 266 268 270 272 274 275 277 278 280 281 282 284 286 288 290 293 295 296 298 300 302 303 305 306 307 309 310 311 312 313 316 319 322
246 247 250 253 255 258 260 262 265 267 269 271 272 273 275 276 277 278 279 281 284 286 288 291 293 294 296 298 299 301 303 303 304 305 306 308 309 310 312 314 317 319
248 250 251 253 255 257 259 261 263 266 267 269 270 272 273 275 276 277 279 281 283 286 288 291 293 294 296 297 299 300 301 301 302 303 304 306 308 309 310 312 315 316
253 254 255 255 256 257 258 260 261 263 265 267 269 270 272 274 275 277 279 280 283 286 288 290 292 293 295 297 298 299 299 299 300 301 302 304 306 307 308 310 312 314
256 257 258 258 258 258 260 261 262 263 265 266 267 269 271 273 275 277 279 281 283 285 287 289 290 292 293 295 296 296 297 297 298 299 301 302 304 305 306 308 310 312
258 259 260 260 261 261 262 263 264 266 267 268 268 269 271 274 276 277 280 282 284 286 287 288 289 291 292 293 293 294 294 295 296 298 299 301 303 303 304 306 308 310
259 260 262 263 263 264 265 266 268 270 271 272 272 273 275 276 277 279 281 283 284 285 286 287 288 289 290 290 291 292 293 294 295 297 298 300 301 301 303 305 306 307
259 260 262 263 264 266 267 268 270 271 272 273 274 275 276 277 278 280 281 282 283 284 285 286 287 288 288 289 290 291 292 293 294 296 297 297 298 300 302 303 304 305
259 260 261 263 265 266 267 269 269 270 271 272 273 275 276 277 278 279 280 281 281 282 284 286 287 288 288 289 290 290 291 292 293 293 294 295 297 299 300 302 302 303
259 260 261 263 265 267 268 268 268 269 270 271 273 274 275 276 277 278 279 279 280 282 284 285 286 286 287 287 288 289 289 290 291 292 292 294 296 298 298 299 300 300
261 262 263 265 267 268 268 268 268 269 270 271 273 274 275 276 277 278 279 280 280 281 282 282 283 284 284 285 285 286 287 288 289 290 291 293 295 295 296 297 297 298
264 265 266 267 268 268 269 270 270 271 271 272 273 274 275 276 277 277 278 279 280 280 280 280 281 281 282 282 283 284 284 285 286 287 289 291 292 292 293 295 295 296
266 267 267 267 268 269 270 271 272 273 274 274 274 275 276 276 276 277 277 278 278 279 279 280 281 281 282 282 283 283 284 284 285 287 288 289 289 290 292 293 293 293
267 268 268 269 270 271 272 273 274 275 276 277 278 278 278 278 279 279 279 279 279 280 281 282 283 283 283 284 284 284 285 285 286 287 288 288 288 289 290 290 291 292
267 268 270 271 272 273 274 275 275 276 277 278 279 280 280 281 281 281 282 283 283 283 283 283 283 283 284 284 284 285 286 287 288 288 288 287 287 288 288 289 290 292
Height
10991 10992 10993 10993 10994 10994 10995 10995 10994 10995 10995 10995 10995 10995 10995 10995 10995 10994 10994 10993 10993 10992 10992 10991 10991 10990 10989 10989 10988 10986 10985 10984 10983 10982 10981 10980 10978 10977 10976 10974 10973 10971
10990 10991 10992 10992 10993 10993 10993 10993 10994 10994 10994 10994 10994 10994 10994 10993 10993 10993 10992 10992 10992 10991 10990 10989 10989 10988 10987 10987 10986 10985 10984 10983 10982 10980 10979 10978 10977 10975 10974 10973 10972 10970
10988 10989 10990 10991 10991 10991 10991 10992 10992 10993 10993 10993 10993 10993 10992 10992 10992 10991 10991 10991 10990 10989 10989 10988 10987 10986 10985 10985 10985 10984 10983 10982 10980 10979 10978 10976 10975 10974 10972 10971 10970 10968
10986 10987 10988 10989 10989 10989 10990 10990 10991 10991 10992 10992 10992 10991 10991 10991 10991 10990 10990 10989 10989 10988 10987 10986 10985 10984 10983 10983 10983 10982 10982 10980 10979 10978 10977 10975 10973 10972 10970 10969 10968 10966
10984 10984 10985 10986 10987 10988 10988 10988 10989 10989 10990 10990 10990 10989 10989 10989 10989 10989 10988 10987 10987 10986 10985 10984 10983 10982 10981 10981 10981 10980 10980 10979 10978 10977 10975 10974 10972 10970 10968 10967 10966 10964
10981 10982 10983 10984 10985 10985 10986 10986 10987 10987 10988 10988 10987 10987 10987 10987 10987 10986 10986 10985 10985 10984 10983 10982 10981 10980 10979 10979 10978 10978 10978 10977 10976 10975 10974 10972 10970 10968 10966 10965 10964 10962
10978 10979 10980 10981 10982 10983 10984 10984 10985 10985 10985 10985 10985 10984 10984 10984 10984 10984 10983 10983 10982 10982 10981 10980 10979 10977 10976 10976 10976 10975 10975 10975 10974 10973 10972 10970 10968 10966 10964 10963 10962 10961
10976 10976 10978 10979 10980 10981 10981 10982 10983 10982 10983 10982 10981 10982 10981 10981 10981 10981 10981 10980 10980 10979 10978 10977 10976 10975 10974 10973 10973 10972 10972 10972 10971 10971 10970 10968 10966 10964 10962 10961 10960 10959
10973 10973 10975 10976 10977 10978 10979 10979 10980 10979 10979 10978 10978 10979 10978 10978 10978 10978 10978 10977 10977 10977 10976 10975 10974 10973 10971 10970 10970 10969 10969 10969 10968 10967 10967 10965 10963 10961 10959 10958 10957 10956
10969 10970 10972 10973 10974 10975 10975 10976 10976 10976 10976 10975 10975 10975 10975 10975 10975 10975 10975 10974 10974 10974 10973 10972 10971 10970 10969 10967 10967 10966 10965 10965 10964 10964 10963 10962 10960 10958 10956 10955 10954 10953
10965 10966 10968 10969 10970 10971 10971 10972 10972 10972 10973 10972 10972 10972 10972 10972 10972 10972 10971 10971 10971 10970 10970 10969 10968 10967 10966 10964 10963 10962 10962 10961 10960 10960 10959 10958 10957 10955 10952 10951 10950 10949
10960 10962 10963 10965 10966 10966 10967 10967 10968 10968 10969 10969 10968 10968 10968 10968 10968 10968 10968 10967 10967 10967 10966 10965 10965 10963 10962 10961 10960 10959 10958 10957 10956 10955 10955 10954 10954 10951 10949 10947 10946 10945
10955 10957 10959 10960 10961 10961 10962 10962 10963 10964 10964 10964 10965 10964 10964 10964 10964 10964 10964 10964 10964 10963 10962 10962 10961 10960 10959 10958 10957 10955 10954 10953 10952 10951 10950 10950 10949 10948 10945 10944 10942 10941
10951 10953 10955 10956 10956 10956 10957 10958 10958 10959 10960 10960 10960 10960 10960 10960 10960 10960 10960 10960 10960 10959 10959 10958 10957 10956 10955 10954 10953 10951 10949 10948 10947 10946 10945 10945 10944 10943 10941 10940 10938 10936
10947 10949 10950 10951 10951 10951 10952 10953 10954 10954 10955 10956 10956 10956 10956 10956 10956 10956 10956 10956 10956 10955 10955 10954 10953 10952 10951 10949 10948 10947 10945 10943 10941 10941 10940 10940 10939 10938 10936 10935 10933 10932
10943 10944 10945 10946 10947 10947 10948 10949 10949 10950 10951 10951 10951 10952 10951 10952 10952 10952 10952 10952 10951 10951 10950 10949 10948 10947 10946 10945 10943 10942 10940 10938 10936 10935 10935 10935 10934 10932 10931 10930 10929 10927
10938 10939 10940 10941 10942 10943 10944 10944 10945 10946 10946 10946 10946 10947 10947 10947 10947 10947 10947 10947 10947 10946 10945 10944 10943 10942 10941 10939 10938 10936 10934 10932 10930 10929 10929 10929 10929 10927 10926 10925 10924 10922
10933 10934 10935 10935 10936 10938 10939 10940 10941 10941 10940 10940 10941 10941 10942 10942 10942 10942 10942 10942 10941 10940 10939 10939 10938 10936 10935 10933 10932 10930 10929 10927 10925 10924 10923 10923 10923 10922 10921 10920 10919 10917
10928 10929 10929 10930 10931 10933 10934 10935 10936 10935 10935 10934 10935 10935 10937 10936 10936 10936 10937 10936 10935 10934 10933 10933 10932 10930 10929 10928 10926 10925 10923 10922 10920 10918 10916 10916 10916 10916 10915 10914 10913 10911
10922 10923 10924 10924 10926 10927 10928 10929 10929 10929 10928 10928 10929 10930 10931 10930 10930 10931 10931 10930 10929 10928 10928 10927 10925 10924 10922 10921 10920 10918 10917 10916 10914 10912 10910 10909 10909 10910 10909 10908 10907 10905
10917 10918 10919 10920 10921 10922 10922 10922 10922 10922 10922 10922 10923 10924 10924 10924 10924 10924 10924 10923 10923 10923 10923 10921 10919 10917 10915 10914 10913 10912 10911 10910 10908 10906 10904 10903 10902 10902 10902 10902 10900 10898
10910 10912 10914 10915 10915 10914 10914 10914 10914 10915 10916 10917 10917 10917 10918 10918 10918 10917 10916 10916 10916 10917 10916 10914 10913 10911 10908 10906 10906 10905 10904 10904 10902 10900 10898 10897 10896 10894 10894 10895 10893 10890
10904 10906 10907 10908 10907 10906 10905 10905 10907 10908 10909 10910 10911 10911 10911 10912 10911 10911 10910 10909 10909 10908 10908 10907 10905 10904 10902 10900 10898 10898 10897 10897 10896 10894 10893 10891 10889 10886 10886 10886 10886 10883
10897 10899 10899 10899 10899 10899 10899 10899 10900 10900 10901 10902 10903 10904 10904 10903 10903 10903 10903 10902 10901 10900 10899 10899 10898 10897 10894 10892 10890 10889 10889 10889 10889 10888 10887 10885 10882 10879 10878 10878 10877 10875
10891 10891 10891 10891 10893 10893 10893 10893 10894 10894 10894 10894 10895 10895 10896 10895 10895 10895 10894 10893 10893 10893 10892 10892 10891 10890 10887 10884 10882 10880 10880 10880 10881 10881 10879 10876 10874 10872 10870 10869 10869 10868
10884 10885 10885 10885 10886 10886 10887 10887 10887 10888 10888 10888 10887 10887 10888 10888 10887 10887 10886 10885 10884 10884 10885 10885 10883 10882 10880 10877 10874 10872 10871 10871 10873 10873 10870 10868 10867 10866 10863 10861 10862 10862